Location: B�hl
(48.6968°N, 8.1352°E)
Time: 01:54:02
(UTC+00:00)

SL-16 R/B - Pass Details

Date: 08 March 2021
Orbit: 842 x 846 km, 71.0° (Epoch: 12 April)

Event Time Altitude Azimuth Distance (km) Brightness Sun altitude
Rises 18:20:11 0° 238° (WSW) 3,395 6.3 -10.4°
Reaches altitude 10° 18:22:53 10° 248° (WSW) 2,464 5.7 -10.8°
Maximum altitude 18:27:56 33° 312° (NW) 1,405 4.0 -11.6°
Drops below altitude 10° 18:33:01 10° 15° (NNE) 2,478 4.6 -12.5°
Sets 18:35:45 0° 25° (NNE) 3,417 5.2 -12.9°
